Voltar ao catálogo

STARLINK-30467

AtivoComunicaçõesVLEO
NORAD 57895·PAYLOAD·🇺🇸 United States

Lançado Sep 20, 2023 de Cape Canaveral Space Force Station

Loading…

Próximas Passagens (próximas 24 horas)

TLE

AtualizadoSource: CelesTrak SupGP

Época: Sep 15, 2026, 02:30 UTC

1 57895C 23146E   26258.10465278  .00037234  00000+0  13485-2 0  2585
2 57895  43.0013 324.2625 0001638 262.6269 236.0524 15.27561371    13

Acompanhe STARLINK-30467 em tempo real com AllMySat

Download on the App Store